Location: Combault
(48.8023°N, 2.6045°E)
Time: 14:19:06
(UTC+00:00)

Daily predictions for brighter satellites

Satellite Brightness Start Highest point End
(mag) Time Altitude Azimuth Time Altitude Azimuth Time Altitude Azimuth
ATLAS 3B R/B 2.7 17:10:01 10° SW 17:16:36 89° ESE 17:23:30 10° NE
Cosmos 2082 3.8 17:11:47 10° NNW 17:17:27 86° WSW 17:23:04 10° SSE
SMAP 3.3 17:13:36 10° S 17:18:16 78° WSW 17:22:57 10° NNW
Cosmos 1470 3.4 17:15:27 10° SSW 17:19:23 63° WNW 17:23:20 10° N
Radarsat Rocket 4.4 17:13:10 10° SSE 17:19:32 87° WSW 17:26:49 10° NNW
Cosmos 1703 3.7 17:22:01 10° N 17:25:45 40° ENE 17:29:27 10° SE
ATLAS 5 CENTAUR R/B 2.1 17:24:01 10° S 17:27:30 34° ESE 17:31:23 10° NE
Cosmos 1821 Rocket 4.2 17:21:57 10° SSE 17:28:08 53° E 17:34:17 10° NNE
Cosmos 2322 Rocket 3.8 17:26:42 10° ESE 17:28:50 12° E 17:30:58 10° ENE
Cosmos 2218 Rocket 4.3 17:22:54 10° SSW 17:29:11 76° W 17:35:35 10° N
USA 267 4.0 17:22:52 10° SE 17:29:17 57° SW 17:35:45 10° WNW
Cosmos 1300 4.2 17:27:33 10° SE 17:29:55 16° E 17:32:19 10° NE
SKYMED 2 4.1 17:27:47 10° NNE 17:31:50 36° E 17:35:51 10° SSE
Tiangong 3.6 17:31:07 10° S 17:32:10 11° SSE 17:33:13 10° SE
Gbstr 26 Del rocket 4.5 17:27:24 10° WNW 17:34:18 83° SSW 17:42:16 10° ESE
CENTAUR R/B 4.2 17:31:31 10° WNW 17:37:15 28° N 17:43:52 10° NE
PSLV R/B 4.4 17:33:40 10° S 17:37:41 65° W 17:41:39 10° NNW
NOSS 3-1 (C) 4.5 17:36:24 10° SSE 17:40:04 19° ESE 17:44:07 10° ENE
SL-19 R/B 4.3 17:34:33 10° NNE 17:40:19 64° ESE 17:45:50 10° S
YAOGAN 1 3.4 17:38:11 10° SE 17:41:54 29° ENE 17:45:37 10° N
MOS 1-B Rocket 4.4 17:35:24 10° NNE 17:41:56 44° E 17:47:36 10° SSE
Cosmos 405 Rocket 2.9 17:38:42 10° N 17:42:35 53° ENE 17:46:30 10° SSE
Cosmos 1455 Rocket 3.4 17:39:15 10° SSE 17:43:25 43° E 17:47:37 10° NNE
Cosmos 724 4.3 17:39:25 10° NW 17:45:26 71° NE 17:51:16 10° SE
Cosmos 1934 Rocket 4.3 17:40:57 10° SSE 17:46:32 40° E 17:52:07 10° NNE
H-2A R/B 3.5 17:44:00 10° NE 17:46:35 16° E 17:49:10 10° SE
CZ-4B R/B 3.3 17:41:49 10° SSE 17:47:29 85° ENE 17:53:11 10° NNW
Cosmos 2150 Rocket 4.3 17:42:41 10° SSW 17:48:07 76° WNW 17:53:31 10° NNE
Cosmos 1758 4.4 17:46:49 10° SSW 17:50:41 49° WNW 17:54:34 10° N
SL-08 RB Rocket 4.1 17:47:22 10° SE 17:51:38 41° ENE 17:55:58 10° N
Okean O Rocket 1.5 17:47:46 10° SSE 17:52:05 76° ENE 17:56:28 10° N
Cosmos 1328 4.1 17:48:58 10° N 17:52:52 45° ENE 17:56:45 10° SSE
H-2A R/B 2.8 17:49:47 10° SE 17:53:53 44° ENE 17:57:53 10° N
Cosmos 1544 Rocket 4.1 17:53:13 10° SSE 17:57:17 35° E 18:01:22 10° NNE
Cosmos 1953 2.3 17:53:30 10° S 17:57:33 83° E 18:01:38 10° N
CZ-4C R/B 3.2 17:54:33 10° NNE 17:57:50 44° E 18:01:01 10° S
Meteor 1-21 Rocket 4.5 17:52:30 10° NNW 17:58:23 83° W 18:04:18 10° S
Cosmos 2227 4.2 17:53:23 10° NNW 17:59:10 70° ENE 18:04:54 10° SE
Cosmos 2369 4.0 17:54:13 10° SW 17:59:52 73° WNW 18:05:35 10° NNE
Cosmos 1174 4.0 17:57:57 10° SW 18:01:02 49° NW 18:03:57 10° NNE
Cosmos 2263 Rocket 2.1 17:56:30 10° NNW 18:02:07 88° ENE 18:07:41 10° SSE
ARGOS 3.1 17:57:14 10° SSE 18:02:36 74° ENE 18:08:02 10° N
Cosmos 2123 Rocket 4.0 17:57:19 10° N 18:03:38 63° ENE 18:09:52 10° SSE
Cosmos 1980 Rocket 2.3 17:58:38 10° SSW 18:04:18 84° WNW 18:10:03 10° NNE
H-2A R/B 2.6 18:02:03 10° S 18:07:24 67° WSW 18:12:51 10° NNW
CZ-4 R/B 4.4 18:03:16 10° SSE 18:07:25 88° ENE 18:11:35 10° NNW
CZ-4 R/B 1.6 18:04:14 10° SE 18:08:05 48° ENE 18:12:02 10° N
Okean-O 3.4 18:05:16 15° ESE 18:08:12 31° ENE 18:12:05 10° N
Okean 1-7 Rocket 3.5 18:04:55 10° N 18:09:18 62° ENE 18:13:41 10° SSE
Iridium 4 Rocket 3.1 18:13:22 10° N 18:17:52 75° E 18:22:43 10° S
Cosmos 389 Rocket 4.4 18:14:57 10° SW 18:18:02 31° WNW 18:21:08 10° N
Cosmos 1892 3.9 18:16:19 10° NNE 18:18:55 24° NE 18:18:55 24° NE
Cosmos 1602 Rocket 4.0 18:15:43 10° N 18:19:50 39° ENE 18:22:15 21° SE
COSMO-SKYMED 1 2.7 18:15:40 10° N 18:20:02 75° WNW 18:24:22 10° SSW
CZ-2C R/B 2.7 18:15:28 10° NNE 18:21:07 86° ESE 18:26:41 10° SSW
Cosmos 1697 Rocket 4.1 18:16:08 10° WSW 18:21:23 39° NW 18:26:41 10° NNE
Cosmos 332 Rocket 4.5 18:19:50 10° SSE 18:24:09 32° ESE 18:25:52 25° ENE
Landsat 5 3.8 18:21:07 10° N 18:25:29 73° WNW 18:29:57 10° SSW
CSL-04 Rocket 4.1 18:22:16 18° SE 18:25:57 41° ENE 18:31:08 10° N
X-37B 1.3 18:25:55 10° WSW 18:28:57 41° S 18:29:32 36° SSE
Cosmos 1844 Rocket 3.1 18:31:00 10° NNW 18:36:17 42° NE 18:38:02 33° E
USA 215 3.9 18:31:33 16° NE 18:36:33 50° NNW 18:42:49 10° W
NOSS 2-3 (E) 3.9 18:33:03 10° S 18:36:48 39° ESE 18:37:01 39° ESE
USA 229 DEB 4.1 18:35:34 10° S 18:41:08 33° ESE 18:42:07 32° E
USA 229 4.2 18:35:41 10° S 18:41:14 33° ESE 18:42:08 32° E
Cosmos 2278 4.2 18:36:28 10° SW 18:42:05 60° WNW 18:47:45 10° NNE
IRAS Rocket 4.1 18:38:13 10° NNE 18:43:49 86° ESE 18:49:21 10° SSW
Cosmos 1758 Rocket 3.7 18:44:28 10° N 18:48:34 49° ENE 18:48:34 49° ENE
Cosmos 2278 Rocket 4.0 18:45:50 10° N 18:49:07 15° NNE 18:49:28 15° NE
Cosmos 2251 Rocket 3.5 18:46:06 10° NNW 18:51:19 60° ENE 18:52:48 43° ESE
Cosmos 371 Rocket 3.2 18:47:10 10° SSW 18:52:02 89° W 18:56:58 10° NNE
Lacrosse 4 Rocket 1.3 18:49:26 10° NNW 18:53:44 72° NE 18:54:19 62° ESE
IRS-1C Rocket 4.0 18:48:41 10° SSE 18:53:57 87° WSW 18:59:15 10° NNW
Cosmos 1605 Rocket 3.9 18:47:44 10° S 18:53:59 79° E 19:00:22 10° NNE
Cosmos 1626 Rocket 3.9 18:52:09 10° NNW 18:56:27 64° W 19:00:42 10° S
SL-16 R/B 2.1 18:51:08 10° SSW 18:56:47 75° ESE 19:01:52 13° NNE
Cosmos 1447 Rocket 4.3 18:55:38 10° N 19:01:48 79° E 19:07:12 14° SSE
NOSS 3-1 (A) 3.7 18:58:22 10° S 19:02:24 39° SE 19:02:24 39° SE
Cosmos 1300 3.8 19:01:33 10° SSW 19:05:11 43° WNW 19:08:52 10° N
Cosmos 407 Rocket 4.1 19:02:51 10° NNW 19:07:25 41° NE 19:07:25 41° NE
ATLAS 3B R/B 4.0 19:02:09 10° W 19:08:07 33° NNW 19:14:03 11° NE
Cosmos 1153 Rocket 4.4 19:01:59 10° S 19:08:16 66° E 19:14:39 10° NNE
Tiangong 3.7 19:05:50 10° SW 19:06:42 15° SSW 19:06:42 15° SSW
Cosmos 2322 Rocket 2.0 19:06:17 10° SSW 19:11:52 75° ESE 19:14:13 36° NE
ATLAS 5 CENTAUR R/B 2.8 19:08:18 10° WSW 19:12:02 36° NW 19:13:58 24° NNE
Meteor 2-10 Rocket 3.6 19:07:42 10° S 19:13:20 89° W 19:18:46 10° NNE
SL-8 R/B 3.6 19:09:30 10° WSW 19:14:17 75° S 19:14:17 75° S
Cosmos 1844 3.6 19:09:56 10° NNW 19:15:43 66° ENE 19:16:17 62° E
Cosmos 1825 4.5 19:13:09 10° N 19:13:54 15° N 19:13:54 15° N
YAOGAN 1 4.2 19:13:59 10° SSW 19:17:55 34° W 19:21:52 10° NNW
Cosmos 1140 Rocket 4.1 19:14:57 10° NNW 19:19:00 43° NNE 19:19:00 43° NNE
Cosmos 1408 4.3 19:16:25 10° NNW 19:18:11 27° NNW 19:18:11 27° NNW
H-2A R/B 2.5 19:18:51 10° N 19:22:53 56° WNW 19:26:56 10° SSW
NOSS 2-3 (D) 4.1 19:19:55 10° SW 19:22:51 48° SW 19:22:51 48° SW
Cosmos 2360 Rocket 3.3 19:18:50 10° S 19:21:41 30° S 19:21:41 30° S
Orbus 7S? 3.9 19:20:36 10° NW 19:28:48 78° SW 19:28:54 77° SSW
NOSS 3-1 (C) 3.2 19:24:33 10° SW 19:29:54 81° NW 19:31:34 50° NNE
CENTAUR R/B 4.2 19:23:56 10° NW 19:30:23 30° NNE 19:32:45 26° NE
Cosmos 2344 4.3 19:22:03 10° NW 19:31:07 81° SW 19:38:08 30° SSE
CZ-4 R/B 4.1 19:40:36 10° SW 19:43:21 18° W 19:46:09 10° NW
Okean-O 4.2 19:42:51 24° SW 19:44:37 33° W 19:48:39 10° NNW
Cosmos 1980 Rocket 4.5 19:45:01 10° W 19:49:11 21° NW 19:53:25 10° N
Cosmos 1932 4.4 19:44:57 10° NW 19:51:12 76° SW 19:51:17 76° SW
Resurs 01 Rocket 4.2 20:00:29 13° N 20:00:29 13° N 20:00:58 10° N
Cosmos 1943 Rocket 4.5 20:02:00 10° N 20:03:29 13° NNE 20:03:29 13° NNE
Cosmos 2100 Rocket 4.4 20:14:15 57° NNW 20:14:15 57° NNW 20:19:27 10° N
USA 215 3.9 20:18:55 45° N 20:18:55 45° N 20:25:03 10° WNW
Cosmos 1844 Rocket 3.9 20:15:03 10° NW 20:19:43 37° W 20:19:43 37° W
USA 229 DEB 4.4 20:25:14 10° SW 20:29:38 45° WSW 20:29:38 45° WSW
USA 229 4.4 20:25:20 10° SW 20:29:39 44° WSW 20:29:39 44° WSW
Lacrosse 4 Rocket 4.4 20:29:21 10° WNW 20:30:38 14° W 20:30:38 14° W
Cosmos 2278 Rocket 4.0 20:28:55 10° NNW 20:31:18 25° NNW 20:31:18 25° NNW
SL-16 R/B 4.2 20:36:51 10° W 20:41:29 25° NW 20:43:48 20° N
Cosmos 2322 Rocket 4.2 20:51:58 10° W 20:56:08 24° NW 20:56:08 24° NW
ATLAS 3B R/B 4.4 20:55:37 10° NW 21:00:59 23° N 21:01:17 23° N
CENTAUR R/B 4.0 21:14:56 10° NW 21:19:55 41° NNW 21:19:55 41° NNW
